(232076) = 2001 VS53

Discovered at Socorro on 2001-11-10 by LINEAR.

Orbit

Orbit type: Main Belt

Note: WebGL enabled browser required.

epoch2024-03-31.0
epoch JD2460400.5
perihelion date2023-11-10.82632
perihelion JD2460259.32632
argument of perihelion (°)132.75477
ascending node (°)253.32505
inclination (°)4.57199
eccentricity0.1267843
perihelion distance (AU)2.0855287
Tisserand w.r.t. Jupiter3.5
ΔV w.r.t. Earth (km/sec)9.1
semimajor axis (AU)2.3883317
mean anomaly (°)37.69777
mean daily motion (°/day)0.26703110
aphelion distance (AU)2.691
period (years)3.69
P-vector [x]0.89594422
P-vector [y]0.38067955
P-vector [z]0.22883846
Q-vector [x]-0.43755361
Q-vector [y]0.84502257
Q-vector [z]0.30738200
absolute magnitude16.96
phase slope0.15
uncertainty0
referenceMPEC 2024-D127
observations used429
oppositions12
arc length (days)8126
first opposition used2001
last opposition used2024
residual rms (arc-secs)0.76
perturbers coarse indicatorM-v
perturbers precise indicator003Ek
first observation date used2001-10-12.0
last observation date used2024-01-11.0
computer nameMPCLINUX
JD of orbit computation2456760.912634
perihelion JD uncertainty (days)1.0691E-04
argument of perihelion uncertainty (°)7.9366E-05
ascending node uncertainty (°)7.2497E-05
inclination uncertainty (°)5.8833E-06
eccentricity uncertainty 1.2498E-07
perihelion distance uncertainty (AU)3.0341E-07
Minimum Orbit Intersection Distances (in AU)
for orbit epoch: 2460400.5, reference: E2024-DC7
Mercury1.75129
Venus1.36685
Earth1.09331
Mars0.62907
Jupiter2.74247
Saturn6.72762
Uranus15.8221
Neptune27.736

Observations

437 total observations over interval: 2001 10 12.36865 – 2024 01 11.089420
These data are available for download (format description).

Date (UT) J2000 RA J2000 Dec Magn Location Ref
2001 10 12.36865 02 55 50.51 +22 09 16.8 19.0 R 699 – Lowell Observatory-LONEOS MPS 44783
2001 10 12.39046 02 55 49.60 +22 09 12.0   699 – Lowell Observatory-LONEOS MPS 44783
2001 10 12.42292 02 55 48.36 +22 09 05.8   699 – Lowell Observatory-LONEOS MPS 44783
2001 10 12.44496 02 55 47.55 +22 08 59.5   699 – Lowell Observatory-LONEOS MPS 44783
2001 10 14.25709 02 54 39.85 +22 02 18.0 19.9   704 – Lincoln Laboratory ETS, New Mexico MPS 44783
2001 10 14.27276 02 54 39.14 +22 02 15.4 19.6   704 – Lincoln Laboratory ETS, New Mexico MPS 44783
2001 10 14.28894 02 54 38.46 +22 02 12.0 19.8   704 – Lincoln Laboratory ETS, New Mexico MPS 44783
2001 10 14.30461 02 54 37.80 +22 02 08.7 19.6   704 – Lincoln Laboratory ETS, New Mexico MPS 44783
2001 10 14.32025 02 54 37.16 +22 02 05.0 19.7   704 – Lincoln Laboratory ETS, New Mexico MPS 44783
2001 10 19.36252 02 50 58.95 +21 39 52.3 19.5 V 691 – Steward Observatory, Kitt Peak-Spacewatch MPS 44783
2001 10 19.38601 02 50 57.77 +21 39 45.2 19.4 V 691 – Steward Observatory, Kitt Peak-Spacewatch MPS 44783
2001 10 19.40870 02 50 56.64 +21 39 38.5 19.4 V 691 – Steward Observatory, Kitt Peak-Spacewatch MPS 44783
2001 10 21.34262 02 49 23.46 +21 29 47.3 19.3   704 – Lincoln Laboratory ETS, New Mexico MPS 44783
2001 10 21.35895 02 49 22.61 +21 29 43.0 19.5   704 – Lincoln Laboratory ETS, New Mexico MPS 44783
2001 10 21.37529 02 49 21.80 +21 29 37.1 19.5   704 – Lincoln Laboratory ETS, New Mexico MPS 44783
2001 10 21.39163 02 49 20.94 +21 29 32.2 19.4   704 – Lincoln Laboratory ETS, New Mexico MPS 44783
2001 10 21.40797 02 49 20.07 +21 29 26.4 19.6   704 – Lincoln Laboratory ETS, New Mexico MPS 44783
2001 10 25.25728 02 46 02.36 +21 07 48.6 19.8   704 – Lincoln Laboratory ETS, New Mexico MPS 42160
2001 10 25.27391 02 46 01.39 +21 07 42.2 19.5   704 – Lincoln Laboratory ETS, New Mexico MPS 42160
2001 10 25.29061 02 46 00.49 +21 07 36.5 19.2   704 – Lincoln Laboratory ETS, New Mexico MPS 42160
2001 10 25.30722 02 45 59.58 +21 07 31.0 19.2   704 – Lincoln Laboratory ETS, New Mexico MPS 42160
2001 11 10.31088 02 31 06.53 +19 16 49.4 19.0   704 – Lincoln Laboratory ETS, New Mexico MPS 41311
2001 11 10.32530 02 31 05.71 +19 16 42.7 19.3   704 – Lincoln Laboratory ETS, New Mexico MPS 41311
2001 11 10.33952 02 31 04.94 +19 16 36.6 19.4   704 – Lincoln Laboratory ETS, New Mexico MPS 41311
2001 11 10.35375 02 31 04.15 +19 16 30.4 19.2   704 – Lincoln Laboratory ETS, New Mexico MPS 41311
2001 11 10.36800 02 31 03.29 +19 16 23.7 19.2   704 – Lincoln Laboratory ETS, New Mexico MPS 41311
2001 11 12.28729 02 29 20.98 +19 01 57.8 18.8   704 – Lincoln Laboratory ETS, New Mexico MPS 41311
2001 11 12.30162 02 29 20.14 +19 01 51.4 19.2   704 – Lincoln Laboratory ETS, New Mexico MPS 41312
2001 11 12.31583 02 29 19.46 +19 01 45.8 19.3   704 – Lincoln Laboratory ETS, New Mexico MPS 41312
2001 11 12.33003 02 29 18.62 +19 01 38.3 19.0   704 – Lincoln Laboratory ETS, New Mexico MPS 41312
2001 11 12.34426 02 29 17.77 +19 01 32.0 19.0   704 – Lincoln Laboratory ETS, New Mexico MPS 41312
2001 11 17.34108 02 25 08.04 +18 24 11.5 19.7   644 – Palomar Mountain/NEAT MPS 42160
2001 11 17.36238 02 25 06.93 +18 24 01.7 19.4   644 – Palomar Mountain/NEAT MPS 42160
2001 11 17.38341 02 25 05.87 +18 23 52.1 19.7   644 – Palomar Mountain/NEAT MPS 42160
2001 11 19.21505 02 23 42.39 +18 10 28.5 18.9   704 – Lincoln Laboratory ETS, New Mexico MPS 42160
2001 11 19.22996 02 23 41.70 +18 10 21.5 19.8   704 – Lincoln Laboratory ETS, New Mexico MPS 42160
2001 11 19.24466 02 23 40.98 +18 10 15.8 19.8   704 – Lincoln Laboratory ETS, New Mexico MPS 42160
2001 11 19.25954 02 23 40.29 +18 10 08.9 19.3   704 – Lincoln Laboratory ETS, New Mexico MPS 42160
2001 11 19.27425 02 23 39.58 +18 10 01.8 19.6   704 – Lincoln Laboratory ETS, New Mexico MPS 42160
2001 11 20.21066 02 22 58.90 +18 03 16.4 19.0   704 – Lincoln Laboratory ETS, New Mexico MPS 44783
2001 11 20.22562 02 22 58.19 +18 03 09.9 19.1   704 – Lincoln Laboratory ETS, New Mexico MPS 44783
2001 11 20.24020 02 22 57.50 +18 03 03.4 19.4   704 – Lincoln Laboratory ETS, New Mexico MPS 44783
2001 11 20.27024 02 22 56.17 +18 02 51.6 19.3   704 – Lincoln Laboratory ETS, New Mexico MPS 44783
2001 11 24.16419 02 20 21.16 +17 35 38.5 19.8   704 – Lincoln Laboratory ETS, New Mexico MPS 49619
2001 11 24.17875 02 20 20.71 +17 35 33.0 20.1   704 – Lincoln Laboratory ETS, New Mexico MPS 49619
2001 11 24.19332 02 20 20.10 +17 35 28.0 20.1   704 – Lincoln Laboratory ETS, New Mexico MPS 49619
2001 11 24.20790 02 20 19.52 +17 35 19.9 20.1   704 – Lincoln Laboratory ETS, New Mexico MPS 49619
2005 12 01.44751 06 53 53.16 +20 52 42.3 20.3 V 691 – Steward Observatory, Kitt Peak-Spacewatch MPS 153531
2005 12 01.46488 06 53 52.43 +20 52 40.2 20.2 V 691 – Steward Observatory, Kitt Peak-Spacewatch MPS 153531
2005 12 01.48225 06 53 51.70 +20 52 37.5 19.9 V 691 – Steward Observatory, Kitt Peak-Spacewatch MPS 153531
2005 12 05.47362 06 50 57.88 +20 44 40.9 20.1 V 691 – Steward Observatory, Kitt Peak-Spacewatch MPS 153531
2005 12 05.49098 06 50 57.02 +20 44 38.7 20.1 V 691 – Steward Observatory, Kitt Peak-Spacewatch MPS 153531
2005 12 05.50834 06 50 56.15 +20 44 36.3 19.9 V 691 – Steward Observatory, Kitt Peak-Spacewatch MPS 153531
2008 09 01.77203 21 52 21.91 -04 05 55.6 19.1 V A50 – Andrushivka Astronomical Observatory MPS 256557
2008 09 01.77388 21 52 21.86 -04 05 56.1 19.4 V A50 – Andrushivka Astronomical Observatory MPS 256557
2008 09 01.77572 21 52 21.80 -04 05 57.1 19.5 V A50 – Andrushivka Astronomical Observatory MPS 256557
2008 09 01.83010 21 52 18.93 -04 06 13.0 19.4 V A50 – Andrushivka Astronomical Observatory MPS 256557
2008 10 07.18043 21 36 59.94 -06 36 50.0 19.8 V G96 – Mt. Lemmon Survey MPS 259123
2008 10 07.18927 21 36 59.97 -06 36 51.4 19.9 V G96 – Mt. Lemmon Survey MPS 259123
2008 10 07.19813 21 37 00.01 -06 36 52.6 19.9 V G96 – Mt. Lemmon Survey MPS 259123
2008 10 07.20697 21 37 00.04 -06 36 53.9 20.1 V G96 – Mt. Lemmon Survey MPS 259123
2008 12 01.06825 22 23 14.46 -05 01 37.2 20.0 V G96 – Mt. Lemmon Survey MPS 267396
2008 12 01.07500 22 23 14.96 -05 01 34.5 21.8 V G96 – Mt. Lemmon Survey MPS 267396
2008 12 01.08171 22 23 15.50 -05 01 32.0 21.4 V G96 – Mt. Lemmon Survey MPS 267396
2008 12 01.08849 22 23 16.08 -05 01 29.2 21.2 V G96 – Mt. Lemmon Survey MPS 267396
2010 01 08.40294 09 39 31.32 +07 43 42.1 20.4 V 691 – Steward Observatory, Kitt Peak-Spacewatch MPS 310128
2010 01 08.42058 09 39 30.67 +07 43 42.3 20.7 V 691 – Steward Observatory, Kitt Peak-Spacewatch MPS 310128
2010 01 08.43822 09 39 30.00 +07 43 42.7 20.4 V 691 – Steward Observatory, Kitt Peak-Spacewatch MPS 310128
2010 02 14.27709 09 06 08.37 +09 23 14.1 19.6   704 – Lincoln Laboratory ETS, New Mexico MPS 312978
2010 02 14.28956 09 06 07.61 +09 23 17.1 20.5   704 – Lincoln Laboratory ETS, New Mexico MPS 312978
2010 02 14.31470 09 06 06.17 +09 23 22.9 20.3   704 – Lincoln Laboratory ETS, New Mexico MPS 312978
2010 02 16.22324 09 04 16.75 +09 31 29.6 20.1 V G96 – Mt. Lemmon Survey MPS 312978
2010 02 16.22955 09 04 16.39 +09 31 31.5 19.9 V G96 – Mt. Lemmon Survey MPS 312978
2010 02 16.23593 09 04 16.03 +09 31 33.0 20.0 V G96 – Mt. Lemmon Survey MPS 312978
2010 02 16.24221 09 04 15.67 +09 31 34.5 19.7 V G96 – Mt. Lemmon Survey MPS 312978
2012 09 21.38372 01 59 44.86 +19 13 16.8 19.8 V 691 – Steward Observatory, Kitt Peak-Spacewatch MPS 433133
2012 09 21.40148 01 59 44.42 +19 13 15.5 19.8 V 691 – Steward Observatory, Kitt Peak-Spacewatch MPS 433133
2012 09 21.41924 01 59 43.96 +19 13 13.6 19.7 V 691 – Steward Observatory, Kitt Peak-Spacewatch MPS 433133
2012 09 26.588531 01 57 23.494 +19 02 24.21 19.6 z F51 – Pan-STARRS 1, Haleakala MPS 433978
2012 09 26.599553 01 57 23.133 +19 02 22.34 19.3 z F51 – Pan-STARRS 1, Haleakala MPS 433978
2012 10 07.40541 01 50 11.67 +18 19 22.0 18.6 R 926 – Tenagra II Observatory, Nogales MPS 434825
2012 10 07.41695 01 50 11.10 +18 19 18.4 18.8 R 926 – Tenagra II Observatory, Nogales MPS 434825
2012 10 07.42847 01 50 10.46 +18 19 15.0 18.5 R 926 – Tenagra II Observatory, Nogales MPS 434825
2012 10 08.34969 01 49 26.90 +18 14 21.4 18.8 V 703 – Catalina Sky Survey MPS 434825
2012 10 08.35506 01 49 26.61 +18 14 21.1 19.2 V 703 – Catalina Sky Survey MPS 434825
